Preview of NWS' New Version of Forecast
This preview is not operational and should not be used for support decisions.

Regional Weather Roundup (RWR)

Issued by National Weather Service (NWS)

                            
000
ASUS45 KABQ 181810
RWRNM 
NEW MEXICO REGIONAL WEATHER ROUNDUP
NATIONAL WEATHER SERVICE ALBUQUERQUE NM
1200 PM MDT THU APR 18 2019

NOTE: "FAIR" MEANS FEW OR NO CLOUDS BELOW 12,000 FEET AGL WITH NO
       SIGNIFICANT WEATHER OR OBSTRUCTIONS TO VISION.

      THIS PRODUCT IS RELEASED AS TWO VERSIONS.  ONE VERSION NEAR
      THE TOP OF THE HOUR CONTAINING PRELIMINARY DATA FROM ALBUQUERQUE
      AND OTHER STATIONS.  A FINAL VERSION WITH ADDITIONAL DATA IS 
      ISSUED ABOUT 10 MINUTES AFTER THE HOUR.
 
NMZ501-503-504-510>518-181900-
NORTHWEST PLATEAU/NORTHCENTRAL MOUNTAINS
  
CITY           SKY/WX    TMP DP  RH WIND       PRES   REMARKS
FARMINGTON     FAIR      66  23  19 W20G30    30.21F                  
6HR MIN TEMP:  41; 6HR MAX TEMP:  66;                                

LOS ALAMOS       N/A     54  27  34 E6        30.27F                  
SANTA FE       FAIR      57  28  33 CALM      30.24F                  
6HR MIN TEMP:  35; 6HR MAX TEMP:  58;                                

TAOS           FAIR      58  19  22 N15G23    30.26F                  
ANGEL FIRE       N/A     49  26  41 SW7       30.26S                  

$$
NMZ402-403-502-505>509-181900-
WESTCENTRAL MOUNTAINS/SOUTHWEST MOUNTAINS
  
CITY           SKY/WX    TMP DP  RH WIND       PRES   REMARKS
GALLUP         FAIR      61  25  25 CALM      30.31R                  
6HR MIN TEMP:  27; 6HR MAX TEMP:  61;                                

GRANTS         FAIR      58  26  28 N10G16    30.31S                  
SILVER CITY    FAIR      64  27  25 N3        30.26S                  

$$
NMZ407-409-411-412-181900-
SOUTHERN DESERTS
  
CITY           SKY/WX    TMP DP  RH WIND       PRES   REMARKS
DEMING         FAIR      70  28  21 N9G16     30.22R                  
6HR MIN TEMP:  42; 6HR MAX TEMP:  70;                                

LAS CRUCES     FAIR      69  34  27 E7        30.23R                  
HOLLOMAN AFB   FAIR      64  44  47 CALM      30.23R                  
ALAMOGORDO     FAIR      63  45  51 S5        30.22S                  
T OR C         FAIR      67  31  26 NE8       30.22S                  
6HR MIN TEMP:  41; 6HR MAX TEMP:  67;                                


$$
NMZ519>523-181900-
CENTRAL VALLEYS/CENTRAL HIGHLANDS
  
CITY           SKY/WX    TMP DP  RH WIND       PRES   REMARKS
ALBUQUERQUE    FAIR      58  40  51 VRB5      30.25S                  
6HR MIN TEMP:  42; 6HR MAX TEMP:  58;                                

DOUBLE EAGLE   MOSUNNY   57  37  47 N9        30.27S                  
MORIARTY ARPT  FAIR      57  42  56 SW7       30.28F                  
6HR MIN TEMP:  36; 6HR MAX TEMP:  57;                                

CLINES CORNERS PTSUNNY   52  36  54 VRB6      30.27F                  
6HR MIN TEMP:  36; 6HR MAX TEMP:  53;                                

BELEN          FAIR      60  38  45 NW5       30.27R                  
6HR MIN TEMP:  37; 6HR MAX TEMP:  60;                                

SOCORRO        FAIR      61  35  36 N7        30.25S                  
6HR MIN TEMP:  36; 6HR MAX TEMP:  62;                                


$$
NMZ524>526-539-540-181900-
SOUTHCENTRAL MOUNTAINS
  
CITY           SKY/WX    TMP DP  RH WIND       PRES   REMARKS
RUIDOSO        FAIR      54  32  43 E5        30.29F                  

$$
NMZ527>531-181900-
NORTHEAST HIGHLANDS/NORTHEAST PLAINS
  
CITY           SKY/WX    TMP DP  RH WIND       PRES   REMARKS
LAS VEGAS      FAIR      53  36  52 SW16G24   30.23F                  
6HR MIN TEMP:  33; 6HR MAX TEMP:  53;                                

RATON          FAIR      57  30  35 NW8       30.17F                  
6HR MIN TEMP:  34; 6HR MAX TEMP:  59;                                

CLAYTON        PTSUNNY   58  33  39 N14G24    30.16F                  
6HR MIN TEMP:  43; 6HR MAX TEMP:  58;                                


$$
NMZ532>537-181900-
EASTCENTRAL PLAINS
  
CITY           SKY/WX    TMP DP  RH WIND       PRES   REMARKS
SANTA ROSA     FAIR      58  32  37 E5        30.22S                  
TUCUMCARI      FAIR      64  38  38 NE10      30.16F                  
6HR MIN TEMP:  49; 6HR MAX TEMP:  64;                                

CANNON AFB     FAIR      60  37  42 N13       30.19F                  
6HR MIN TEMP:  45; 6HR MAX TEMP:  60;                                

CLOVIS AIRPORT FAIR      61  35  37 N16G25    30.19F                  

$$
NMZ028-029-538-181900-
SOUTHEAST PLAINS
  
CITY           SKY/WX    TMP DP  RH WIND       PRES   REMARKS
ROSWELL        FAIR      68  39  34 NE8       30.19F                  
6HR MIN TEMP:  49; 6HR MAX TEMP:  68;                                

ARTESIA        FAIR      64  43  45 N9        30.20S                  
CARLSBAD       FAIR      66  42  41 NE9       30.18S                  
6HR MIN TEMP:  48; 6HR MAX TEMP:  68;                                

HOBBS          MOSUNNY   68  34  28 N12G20    30.17S                  


$$